Bingham Lake, MN

1:53 AM CST on February 23, 2017 (GMT -0600)
Windom Municipal

Weather History for KMWM - August, 2012

Change the Weather History Date:

Monday, August 20, 2012

  Actual Average Record
Temperature  
Mean Temperature 62 °F -  
Max Temperature 77 °F 80 °F 98 °F (1955)
Min Temperature 46 °F 58 °F 32 °F (1950)
Degree Days  
Heating Degree Days 4    
Growing Degree Days 12 (Base 50)    
Moisture  
Dew Point 48 °F    
Average Humidity 64    
Maximum Humidity 94    
Minimum Humidity 31    
Precipitation  
Precipitation 0.00 in - - ()
Sea Level Pressure  
Sea Level Pressure 30.02 in    
Wind  
Wind Speed 2 mph (NNW)    
Max Wind Speed 9 mph    
Max Gust Speed -    
Visibility 10 miles    
Events      
Averages and records for this station are not official NWS values.
T = Trace of Precipitation, MM = Missing Value Source: NWS Daily Summary

Daily Weather History Graph

Daily Weather History Graph

Search for Another Location

Airport or City:

Trip Planner

Search our weather history database for the weather conditions in past years. The results will help you decide how hot, cold, wet, or windy it might be!

Date:

Astronomy

Aug. 20, 2012 Rise Set
Actual Time 6:30 AM CDT 8:15 PM CDT
Civil Twilight 6:00 AM CDT 8:46 PM CDT
Nautical Twilight 5:22 AM CDT 9:23 PM CDT
Astronomical Twilight 4:42 AM CDT 10:03 PM CDT
Moon 10:03 AM CDT (8/20) 9:28 PM CDT (8/20)
Length of Visible Light 14h 46m
Length of Day
13h 45m
Waxing Crescent, 11% of the Moon is Illuminated
Aug 20
Waxing Crescent
Aug 24
First Quarter
Aug 31
Full
Sep 8
Last Quarter
Sep 15
New

Hourly Weather History & Observations

Time (CDT) Temp. Dew Point Humidity Pressure Visibility Wind Dir Wind Speed Gust Speed Precip Events Conditions
12:12 AM 53.6 °F 50.0 °F 88% 30.03 in 10.0 mi Calm Calm - N/A   Clear
12:33 AM 53.6 °F 50.0 °F 88% 30.04 in 10.0 mi Calm Calm - N/A   Clear
12:52 AM 53.6 °F 48.2 °F 82% 30.03 in 10.0 mi Calm Calm - N/A   Clear
1:13 AM 51.8 °F 48.2 °F 88% 30.03 in 10.0 mi Calm Calm - N/A   Clear
1:33 AM 51.8 °F 48.2 °F 88% 30.03 in 10.0 mi Calm Calm - N/A   Clear
1:52 AM 51.8 °F 48.2 °F 88% 30.03 in 10.0 mi WNW 3.5 mph - N/A   Clear
2:13 AM 51.8 °F 48.2 °F 88% 30.03 in 10.0 mi West 3.5 mph - N/A   Clear
2:33 AM 51.8 °F 48.2 °F 88% 30.02 in 10.0 mi Calm Calm - N/A   Clear
2:52 AM 50.0 °F 48.2 °F 94% 30.03 in 10.0 mi Calm Calm - N/A   Clear
3:13 AM 51.8 °F 46.4 °F 82% 30.03 in 10.0 mi Calm Calm - N/A   Clear
3:33 AM 50.0 °F 48.2 °F 94% 30.03 in 10.0 mi Calm Calm - N/A   Clear
3:52 AM 50.0 °F 48.2 °F 94% 30.03 in 10.0 mi Calm Calm - N/A   Clear
4:12 AM 50.0 °F 46.4 °F 87% 30.03 in 10.0 mi Calm Calm - N/A   Clear
4:33 AM 48.2 °F 46.4 °F 93% 30.03 in 10.0 mi Calm Calm - N/A   Clear
4:52 AM 48.2 °F 46.4 °F 93% 30.03 in 10.0 mi Calm Calm - N/A   Clear
5:12 AM 48.2 °F 46.4 °F 93% 30.02 in 10.0 mi Calm Calm - N/A   Clear
5:33 AM 48.2 °F 46.4 °F 93% 30.02 in 10.0 mi Calm Calm - N/A   Clear
5:52 AM 46.4 °F 44.6 °F 93% 30.03 in 5.0 mi Calm Calm - N/A   Clear
6:13 AM 48.2 °F 44.6 °F 87% 30.04 in 10.0 mi Calm Calm - N/A   Clear
6:33 AM 48.2 °F 46.4 °F 93% 30.04 in 10.0 mi Calm Calm - N/A   Scattered Clouds
6:52 AM 48.2 °F 46.4 °F 93% 30.04 in 10.0 mi Calm Calm - N/A   Mostly Cloudy
7:13 AM 48.2 °F 46.4 °F 93% 30.04 in 10.0 mi Calm Calm - N/A   Mostly Cloudy
7:32 AM 53.6 °F 48.2 °F 82% 30.04 in 10.0 mi Calm Calm - N/A   Scattered Clouds
7:53 AM 55.4 °F 51.8 °F 88% 30.04 in 10.0 mi Calm Calm - N/A   Scattered Clouds
8:13 AM 57.2 °F 51.8 °F 82% 30.04 in 10.0 mi Calm Calm - N/A   Clear
8:32 AM 60.8 °F 53.6 °F 77% 30.04 in 10.0 mi Calm Calm - N/A   Clear
8:52 AM 62.6 °F 53.6 °F 72% 30.04 in 10.0 mi Calm Calm - N/A   Clear
9:13 AM 64.4 °F 55.4 °F 73% 30.03 in 10.0 mi Calm Calm - N/A   Clear
9:32 AM 66.2 °F 53.6 °F 64% 30.03 in 10.0 mi NNE 4.6 mph - N/A   Clear
9:52 AM 68.0 °F 53.6 °F 60% 30.03 in 10.0 mi North 5.8 mph - N/A   Clear
10:13 AM 69.8 °F 55.4 °F 60% 30.03 in 10.0 mi NNW 4.6 mph - N/A   Clear
10:32 AM 69.8 °F 51.8 °F 53% 30.03 in 10.0 mi North 6.9 mph - N/A   Clear
10:52 AM 71.6 °F 50.0 °F 46% 30.03 in 10.0 mi North 4.6 mph - N/A   Clear
11:13 AM 71.6 °F 50.0 °F 46% 30.03 in 10.0 mi NNE 4.6 mph - N/A   Clear
11:32 AM 71.6 °F 48.2 °F 43% 30.03 in 10.0 mi North 5.8 mph - N/A   Clear
11:52 AM 73.4 °F 48.2 °F 41% 30.03 in 10.0 mi NNW 6.9 mph - N/A   Clear
12:13 PM 73.4 °F 48.2 °F 41% 30.03 in 10.0 mi North 9.2 mph - N/A   Clear
12:32 PM 73.4 °F 46.4 °F 38% 30.03 in 10.0 mi Calm Calm - N/A   Scattered Clouds
12:52 PM 73.4 °F 48.2 °F 41% 30.02 in 10.0 mi North 6.9 mph - N/A   Scattered Clouds
1:12 PM 75.2 °F 46.4 °F 36% 30.02 in 10.0 mi West 4.6 mph - N/A   Scattered Clouds
1:33 PM 75.2 °F 44.6 °F 34% 30.02 in 10.0 mi WNW 5.8 mph - N/A   Scattered Clouds
1:52 PM 75.2 °F 44.6 °F 34% 30.02 in 10.0 mi Calm Calm - N/A   Scattered Clouds
2:12 PM 77.0 °F 44.6 °F 32% 30.02 in 10.0 mi WSW 6.9 mph - N/A   Scattered Clouds
2:33 PM 75.2 °F 44.6 °F 34% 30.01 in 10.0 mi West 4.6 mph - N/A   Scattered Clouds
2:52 PM 75.2 °F 44.6 °F 34% 30.01 in 10.0 mi NNW 6.9 mph - N/A   Clear
3:12 PM 75.2 °F 42.8 °F 31% 30.01 in 10.0 mi WNW 3.5 mph - N/A   Clear
3:33 PM 75.2 °F 42.8 °F 31% 30.00 in 10.0 mi ESE 3.5 mph - N/A   Clear
3:52 PM 75.2 °F 44.6 °F 34% 30.00 in 10.0 mi Calm Calm - N/A   Clear
4:12 PM 75.2 °F 42.8 °F 31% 30.00 in 10.0 mi NW 4.6 mph - N/A   Clear
4:33 PM 75.2 °F 42.8 °F 31% 30.00 in 10.0 mi NW 6.9 mph - N/A   Clear
4:52 PM 75.2 °F 42.8 °F 31% 29.99 in 10.0 mi West 5.8 mph - N/A   Clear
5:12 PM 75.2 °F 42.8 °F 31% 29.99 in 10.0 mi NW 5.8 mph - N/A   Clear
5:33 PM 75.2 °F 44.6 °F 34% 29.99 in 10.0 mi West 3.5 mph - N/A   Clear
5:52 PM 75.2 °F 44.6 °F 34% 29.99 in 10.0 mi NNW 6.9 mph - N/A   Clear
6:13 PM 75.2 °F 44.6 °F 34% 29.99 in 10.0 mi NNW 3.5 mph - N/A   Clear
6:32 PM 75.2 °F 44.6 °F 34% 29.99 in 10.0 mi North 5.8 mph - N/A   Clear
6:52 PM 73.4 °F 46.4 °F 38% 29.99 in 10.0 mi North 5.8 mph - N/A   Clear
7:13 PM 73.4 °F 48.2 °F 41% 29.99 in 10.0 mi North 4.6 mph - N/A   Clear
7:32 PM 71.6 °F 51.8 °F 50% 29.99 in 10.0 mi NNW 3.5 mph - N/A   Clear
7:52 PM 66.2 °F 53.6 °F 64% 30.00 in 10.0 mi North 5.8 mph - N/A   Clear
8:13 PM 64.4 °F 53.6 °F 68% 30.01 in 10.0 mi ENE 5.8 mph - N/A   Clear
8:32 PM 62.6 °F 53.6 °F 72% 30.01 in 10.0 mi NNE 4.6 mph - N/A   Clear
8:52 PM 60.8 °F 51.8 °F 72% 30.02 in 10.0 mi Calm Calm - N/A   Clear
9:13 PM 60.8 °F 51.8 °F 72% 30.02 in 10.0 mi Calm Calm - N/A   Clear
9:32 PM 59.0 °F 50.0 °F 72% 30.03 in 10.0 mi Calm Calm - N/A   Clear
9:52 PM 55.4 °F 51.8 °F 88% 30.03 in 10.0 mi Calm Calm - N/A   Clear
10:12 PM 57.2 °F 51.8 °F 82% 30.03 in 10.0 mi ENE 3.5 mph - N/A   Clear
10:32 PM 60.8 °F 50.0 °F 68% 30.03 in 10.0 mi Calm Calm - N/A   Clear
10:53 PM 55.4 °F 48.2 °F 77% 30.04 in 10.0 mi Calm Calm - N/A   Clear
11:12 PM 57.2 °F 48.2 °F 72% 30.04 in 10.0 mi Calm Calm - N/A   Clear
11:33 PM 55.4 °F 48.2 °F 77% 30.04 in 10.0 mi Calm Calm - N/A   Clear
11:52 PM 55.4 °F 46.4 °F 72% 30.04 in 10.0 mi Calm Calm - N/A   Clear